Satellite-Ground Cal/Val Region Overpasses Predictions

Prediction of Satellite NPP Overpassing Cal/Val Region: PacNW

Region Location: (Latitude: 10.00, Longitude: 139.50) to (Latitude: 22.70, Longitude: 165.60).

Table of predicted overpasses for the next 14.0 days since TLE Epoch: 2/20/2016
Interval Starting Time Starting Location Ending Time Ending Location
1 02/20/2016 15:18:52 ( 22.68, 155.58) 02/20/2016 15:22:27 ( 10.06, 152.58)
2 02/21/2016 02:27:56 ( 10.02, 163.11) 02/21/2016 02:31:31 ( 22.65, 160.11)
3 02/21/2016 14:59:48 ( 22.70, 160.34) 02/21/2016 15:03:24 ( 10.02, 157.33)
4 02/22/2016 02:11:39 ( 19.75, 165.59) 02/22/2016 02:12:29 ( 22.69, 164.86)
5 02/22/2016 03:50:23 ( 10.02, 142.50) 02/22/2016 03:53:58 ( 22.64, 139.50)
6 02/22/2016 14:40:46 ( 22.66, 165.09) 02/22/2016 14:44:21 ( 10.04, 162.09)
7 02/22/2016 16:22:16 ( 22.65, 139.72) 02/22/2016 16:22:30 ( 21.83, 139.51)
8 02/23/2016 03:31:20 ( 10.06, 147.25) 02/23/2016 03:34:55 ( 22.68, 144.25)
9 02/23/2016 16:03:12 ( 22.67, 144.48) 02/23/2016 16:06:47 ( 10.04, 141.48)
10 02/24/2016 03:12:17 ( 10.04, 152.02) 02/24/2016 03:15:52 ( 22.66, 149.02)
11 02/24/2016 15:44:09 ( 22.68, 149.25) 02/24/2016 15:47:45 ( 10.00, 146.23)
12 02/25/2016 02:53:14 ( 10.02, 156.78) 02/25/2016 02:56:49 ( 22.64, 153.78)
13 02/25/2016 15:25:06 ( 22.64, 154.00) 02/25/2016 15:28:41 ( 10.02, 151.00)
14 02/26/2016 02:34:10 ( 10.00, 161.55) 02/26/2016 02:37:46 ( 22.68, 158.53)
15 02/26/2016 15:06:03 ( 22.66, 158.76) 02/26/2016 15:09:38 ( 10.04, 155.77)
16 02/27/2016 02:16:00 ( 13.10, 165.60) 02/27/2016 02:18:43 ( 22.67, 163.30)
17 02/27/2016 03:56:38 ( 10.05, 140.92) 02/27/2016 03:58:22 ( 16.16, 139.50)
18 02/27/2016 14:46:59 ( 22.68, 163.53) 02/27/2016 14:50:34 ( 10.06, 160.53)
19 02/28/2016 03:37:34 ( 10.04, 145.69) 02/28/2016 03:41:09 ( 22.66, 142.69)
20 02/28/2016 14:31:09 ( 11.37, 165.59) 02/28/2016 14:31:32 ( 10.02, 165.28)
21 02/28/2016 16:09:26 ( 22.69, 142.92) 02/28/2016 16:13:02 ( 10.01, 139.91)
22 02/29/2016 03:18:31 ( 10.02, 150.45) 02/29/2016 03:22:06 ( 22.64, 147.45)
23
